Location: Ipswich
(52.0579°N, 1.1528°E)
Time: 08:55:10
(UTC+01:00)

ISS - Pass Details

Date: 04 May 2026
Orbit: 414 x 424 km, 51.6° (Epoch: 8 May)

Event Time Altitude Azimuth Distance (km) Brightness Sun altitude
Exits shadow 03:04:05 24° 271° (W) 916 -2.3 -16.2°
Maximum altitude 03:05:58 83° 186° (S) 427 -3.9 -16.1°
Drops below altitude 10° 03:09:21 10° 98° (E) 1,502 -0.6 -15.8°
Sets 03:11:27 0° 97° (E) 2,367 0.4 -15.6°
